Regional Weather Roundup
Issued by NWS

Home | Current Version | Previous Version | Graphics & Text | Print | Product List | Glossary On
Versions: 1 2 3 4 5 6 7 8 9 10 11 12 13 14 15 16 17 18 19 20 21 22 23 24 25 26 27 28 29 30 31 32 33 34 35 36 37 38 39 40 41 42 43 44 45 46 47 48 49 50
000
ASUS45 KABQ 182301
RWRNM
WEATHER ROUNDUP FOR NEW MEXICO
NATIONAL WEATHER SERVICE ALBUQUERQUE NM
500 PM MDT FRI APR 18 2014

NOTE: "FAIR" MEANS FEW OR NO CLOUDS BELOW 12,000 FEET AGL WITH NO
       SIGNIFICANT WEATHER OR OBSTRUCTIONS TO VISION.

      THIS PRODUCT IS RELEASED AS TWO VERSIONS.  ONE VERSION NEAR
      THE TOP OF THE HOUR CONTAINING PRELIMINARY DATA FROM ALBUQUERQUE
      AND OTHER STATIONS.  A FINAL VERSION WITH ADDITIONAL DATA IS
      ISSUED ABOUT 10 MINUTES AFTER THE HOUR.

NMZ501-503-504-510>518-190000-
NORTHWEST PLATEAU/NORTHCENTRAL MOUNTAINS

CITY           SKY/WX    TMP DP  RH WIND       PRES   REMARKS
FARMINGTON     PTSUNNY   72  20  14 SE26G40   29.95S
LOS ALAMOS     CLOUDY    67  15  13 S15G23    30.11F
SANTA FE       CLOUDY    72  18  13 SW8       30.05F
TAOS           CLOUDY    66  21  18 SW14      30.11F
ANGEL FIRE     FAIR      60  25  26 W12G18    30.17S

$$
NMZ402-403-502-505>509-190000-
WESTCENTRAL MOUNTAINS/SOUTHWEST MOUNTAINS

CITY           SKY/WX    TMP DP  RH WIND       PRES   REMARKS
GALLUP         CLOUDY    70  20  15 SW24G31   30.04S
SILVER CITY    CLOUDY    66  27  22 SW20G28   30.12R

$$
NMZ407-409-411-412-190000-
SOUTHERN DESERTS

CITY           SKY/WX    TMP DP  RH WIND       PRES   REMARKS
DEMING         CLOUDY    75  25  15 W22G28    30.00S
LAS CRUCES     CLOUDY    79  29  16 SE14      30.00F
HOLLOMAN AFB   PTSUNNY   80  33  18 SE22G28   29.98F
T OR C         PTSUNNY   77  28  16 S20G25    30.00F

$$
NMZ519>523-190000-
CENTRAL VALLEYS/CENTRAL HIGHLANDS

CITY           SKY/WX    TMP DP  RH WIND       PRES   REMARKS
ALBUQUERQUE    PTSUNNY   78  22  12 S16G24    30.00F
DOUBLE EAGLE   PTSUNNY   73  21  14 S17       30.03F
CLINES CORNERS PTSUNNY   71  17  12 SW22G30   30.10F
BELEN          FAIR      77  25  15 S23G29    30.00F
SOCORRO        NOT AVBL

$$
NMZ524>526-539-540-190000-
SOUTHCENTRAL MOUNTAINS

CITY           SKY/WX    TMP DP  RH WIND       PRES   REMARKS
RUIDOSO        NOT AVBL

$$
NMZ527>531-190000-
NORTHEAST HIGHLANDS/NORTHEAST PLAINS

CITY           SKY/WX    TMP DP  RH WIND       PRES   REMARKS
LAS VEGAS      CLOUDY    67  29  24 S24G30    30.08F
RATON          PTSUNNY   73  31  21 S24G32    30.00F
CLAYTON        MOSUNNY   73  34  23 S24G32    30.00S

$$
NMZ532>537-190000-
EASTCENTRAL PLAINS

CITY           SKY/WX    TMP DP  RH WIND       PRES   REMARKS
TUCUMCARI      PTSUNNY   76  36  23 S29G37    29.99F
CANNON AFB     NOT AVBL
CLOVIS AIRPORT CLOUDY    68  45  42 S16G25    30.11F

$$
NMZ028-029-538-190000-
SOUTHEAST PLAINS

CITY           SKY/WX    TMP DP  RH WIND       PRES   REMARKS
ROSWELL        CLOUDY    72  46  39 S18G29    30.04F
CARLSBAD       MOSUNNY   78  44  29 SE15G23   30.02F
HOBBS          SUNNY     72  41  33 SE23      30.09F


$$



USA.gov is the U.S. government's official web portal to all federal, state and local government web resources and services.